Temp
-5 -5 -5 -5 -5 -5 -5 -6 -6 -5 -6 -6 -6 -6 -6 -6 -7 -7 -7 -7 -7 -8 -8 -8 -8 -8 -8 -9 -9 -9 -9 -9 -9 -9 -9 -9 -9 -8 -8 -8 -8 -8 -8
-5 -5 -5 -4 -4 -5 -5 -5 -6 -6 -6 -6 -6 -7 -7 -7 -7 -7 -8 -8 -8 -8 -8 -8 -8 -9 -9 -9 -9 -9 -9 -9 -8 -8 -8 -8 -8 -8 -8 -8 -8 -8 -8
-6 -5 -5 -5 -5 -5 -5 -5 -5 -5 -6 -6 -6 -6 -7 -7 -7 -7 -8 -8 -8 -8 -8 -8 -8 -8 -9 -9 -9 -9 -8 -8 -8 -8 -8 -8 -8 -8 -8 -8 -8 -8 -8
-7 -6 -6 -6 -5 -5 -5 -5 -5 -5 -5 -6 -6 -6 -6 -7 -7 -7 -7 -7 -8 -8 -8 -8 -8 -8 -8 -8 -8 -8 -8 -7 -7 -7 -7 -7 -7 -8 -8 -8 -8 -7 -7
-7 -7 -7 -7 -6 -5 -5 -5 -5 -5 -5 -5 -5 -6 -6 -6 -7 -7 -7 -8 -8 -8 -8 -8 -8 -8 -8 -8 -8 -8 -7 -7 -7 -7 -7 -7 -7 -7 -7 -7 -7 -7 -7
-7 -7 -6 -6 -7 -7 -6 -6 -6 -6 -6 -6 -5 -6 -6 -6 -7 -7 -7 -7 -7 -7 -8 -8 -8 -8 -8 -8 -7 -7 -7 -7 -7 -7 -7 -7 -7 -7 -7 -7 -7 -7 -7
-7 -7 -7 -8 -8 -7 -7 -7 -6 -6 -6 -6 -6 -6 -6 -6 -6 -6 -7 -6 -7 -7 -7 -7 -7 -7 -7 -7 -7 -7 -7 -7 -6 -6 -6 -6 -6 -7 -6 -6 -6 -6 -6
-7 -6 -7 -7 -8 -8 -7 -7 -7 -7 -7 -7 -7 -6 -6 -6 -6 -7 -7 -6 -6 -6 -6 -6 -6 -7 -7 -7 -7 -7 -7 -7 -7 -6 -6 -6 -6 -6 -6 -6 -6 -6 -6
-8 -8 -7 -8 -7 -8 -7 -7 -7 -7 -7 -7 -7 -7 -6 -7 -7 -7 -7 -6 -6 -6 -6 -6 -6 -6 -7 -7 -7 -6 -6 -7 -6 -6 -6 -6 -6 -6 -6 -6 -6 -6 -6
-9 -8 -8 -7 -7 -7 -7 -7 -7 -7 -7 -7 -7 -7 -7 -7 -7 -7 -7 -6 -6 -6 -6 -6 -6 -7 -7 -7 -6 -6 -5 -6 -6 -6 -6 -6 -6 -6 -6 -6 -6 -6 -6
-9 -9 -8 -8 -8 -8 -8 -8 -8 -8 -8 -7 -8 -8 -7 -7 -8 -7 -7 -7 -7 -7 -6 -6 -6 -6 -6 -6 -6 -5 -6 -6 -6 -6 -6 -6 -6 -6 -6 -6 -6 -6 -6
-9 -9 -9 -8 -8 -8 -8 -8 -8 -9 -8 -8 -8 -8 -8 -7 -8 -8 -8 -7 -7 -6 -6 -6 -7 -7 -6 -6 -6 -6 -6 -6 -6 -6 -6 -6 -6 -6 -6 -6 -6 -6 -6
-8 -8 -9 -9 -10 -10 -10 -9 -9 -9 -9 -8 -8 -8 -8 -9 -8 -8 -8 -8 -8 -7 -7 -7 -7 -7 -6 -6 -7 -7 -7 -8 -7 -7 -7 -7 -7 -6 -6 -6 -7 -7 -7
-9 -9 -9 -9 -9 -9 -9 -9 -9 -9 -9 -9 -9 -8 -8 -9 -8 -9 -8 -9 -8 -8 -8 -8 -7 -7 -6 -6 -7 -8 -8 -8 -7 -7 -7 -7 -8 -8 -7 -7 -7 -7 -7
-10 -10 -9 -9 -9 -9 -9 -9 -9 -9 -9 -9 -9 -8 -8 -9 -8 -9 -8 -9 -9 -8 -8 -8 -8 -8 -8 -7 -7 -7 -7 -7 -7 -7 -7 -8 -8 -8 -8 -8 -7 -7 -8
-10 -10 -9 -9 -9 -9 -9 -9 -8 -8 -8 -8 -8 -9 -8 -8 -9 -9 -9 -9 -9 -9 -9 -9 -9 -9 -8 -8 -7 -7 -7 -7 -7 -7 -8 -8 -7 -8 -8 -8 -7 -8 -8
-11 -11 -10 -10 -9 -9 -9 -9 -8 -9 -9 -8 -8 -9 -9 -8 -9 -9 -9 -9 -9 -9 -9 -9 -9 -8 -8 -8 -8 -7 -7 -7 -7 -7 -7 -7 -7 -8 -8 -8 -8 -8 -8
-11 -13 -12 -11 -10 -10 -10 -9 -9 -8 -9 -8 -7 -8 -9 -9 -9 -9 -9 -9 -9 -9 -9 -9 -9 -8 -8 -8 -8 -8 -8 -7 -7 -8 -7 -7 -7 -7 -7 -7 -7 -8 -9
-13 -13 -12 -11 -11 -10 -9 -9 -9 -8 -8 -7 -7 -7 -8 -8 -8 -9 -9 -9 -9 -9 -9 -9 -9 -9 -8 -8 -8 -8 -8 -7 -8 -7 -7 -7 -7 -7 -7 -7 -7 -8 -10
-14 -13 -12 -11 -10 -10 -10 -10 -10 -9 -8 -7 -7 -7 -8 -8 -8 -8 -8 -9 -9 -8 -8 -9 -9 -9 -9 -8 -8 -8 -8 -8 -8 -8 -7 -7 -7 -7 -7 -7 -7 -8 -10
-15 -14 -13 -13 -12 -11 -11 -10 -11 -10 -9 -9 -8 -8 -8 -8 -8 -8 -8 -8 -9 -9 -9 -9 -9 -9 -9 -9 -9 -8 -8 -8 -8 -7 -7 -7 -8 -8 -7 -7 -8 -8 -9
-14 -14 -13 -13 -13 -12 -11 -11 -11 -11 -10 -10 -9 -9 -9 -8 -8 -8 -8 -9 -8 -8 -9 -9 -9 -9 -9 -8 -9 -9 -8 -8 -8 -8 -8 -8 -7 -8 -8 -8 -9 -9 -9
-14 -14 -13 -13 -13 -12 -12 -12 -11 -11 -11 -10 -10 -10 -9 -9 -9 -9 -9 -9 -9 -9 -9 -9 -9 -9 -9 -8 -8 -9 -8 -8 -8 -8 -8 -8 -8 -8 -8 -8 -8 -8 -9
-14 -14 -13 -13 -13 -13 -13 -13 -12 -12 -12 -11 -11 -10 -10 -10 -10 -10 -10 -10 -10 -10 -10 -10 -10 -9 -9 -9 -9 -9 -9 -8 -8 -8 -8 -8 -7 -8 -9 -8 -9 -9 -9
-15 -15 -14 -14 -14 -14 -14 -13 -13 -13 -13 -12 -12 -12 -11 -10 -10 -10 -10 -10 -10 -10 -10 -10 -10 -10 -10 -9 -9 -9 -9 -9 -9 -8 -8 -8 -8 -8 -8 -8 -8 -8 -9
-16 -16 -15 -15 -15 -14 -14 -14 -14 -14 -14 -13 -13 -12 -12 -11 -11 -10 -10 -10 -10 -10 -11 -11 -10 -10 -10 -10 -10 -10 -9 -9 -9 -9 -9 -8 -8 -9 -8 -8 -9 -9 -9
Height
5915 5918 5921 5925 5929 5933 5935 5935 5938 5941 5944 5946 5948 5951 5953 5954 5956 5958 5960 5961 5962 5963 5963 5963 5962 5961 5959 5958 5955 5953 5951 5949 5946 5942 5937 5933 5929 5927 5923 5919 5915 5909 5904
5913 5916 5917 5920 5924 5928 5932 5934 5936 5939 5941 5943 5945 5947 5949 5951 5952 5954 5955 5957 5958 5959 5960 5960 5959 5958 5955 5954 5952 5950 5947 5944 5943 5941 5937 5933 5927 5921 5919 5916 5911 5907 5901
5912 5913 5915 5916 5920 5923 5926 5930 5932 5934 5936 5939 5941 5942 5944 5946 5948 5948 5949 5951 5952 5953 5954 5954 5953 5953 5951 5948 5947 5945 5942 5939 5936 5935 5933 5930 5926 5919 5916 5912 5908 5903 5898
5907 5909 5911 5912 5914 5916 5920 5924 5926 5928 5931 5933 5935 5937 5939 5940 5943 5945 5946 5945 5946 5947 5947 5947 5947 5947 5946 5943 5942 5940 5937 5935 5931 5930 5927 5925 5922 5917 5911 5906 5905 5899 5895
5903 5905 5904 5906 5908 5910 5913 5917 5919 5923 5926 5928 5929 5931 5933 5935 5938 5939 5940 5941 5942 5943 5942 5942 5942 5941 5940 5939 5936 5934 5932 5930 5927 5925 5923 5921 5919 5915 5909 5904 5900 5897 5892
5897 5899 5900 5901 5904 5906 5908 5910 5914 5916 5918 5920 5924 5926 5927 5929 5931 5933 5933 5935 5936 5937 5937 5937 5936 5935 5934 5933 5930 5928 5926 5924 5923 5919 5919 5915 5914 5909 5906 5901 5896 5892 5887
5891 5891 5889 5888 5893 5899 5902 5904 5907 5910 5911 5915 5917 5919 5921 5923 5924 5924 5925 5927 5928 5929 5930 5930 5930 5929 5928 5927 5924 5922 5920 5918 5917 5913 5911 5909 5906 5903 5901 5896 5891 5885 5879
5882 5884 5885 5886 5887 5893 5898 5899 5900 5903 5905 5908 5910 5912 5913 5916 5917 5918 5917 5918 5919 5921 5923 5924 5924 5924 5922 5921 5919 5916 5914 5913 5910 5906 5904 5902 5897 5894 5892 5889 5884 5880 5874
5876 5877 5880 5884 5886 5888 5891 5892 5893 5895 5897 5900 5902 5904 5907 5909 5909 5909 5908 5909 5911 5914 5915 5916 5917 5917 5917 5914 5910 5908 5906 5907 5903 5901 5898 5894 5890 5886 5885 5882 5877 5873 5869
5870 5871 5874 5877 5879 5882 5884 5886 5886 5888 5891 5893 5895 5897 5898 5901 5902 5902 5901 5900 5903 5905 5907 5909 5909 5908 5907 5905 5901 5901 5901 5900 5898 5895 5892 5888 5884 5881 5877 5875 5871 5867 5862
5863 5864 5868 5869 5872 5874 5875 5877 5878 5880 5883 5884 5886 5888 5891 5891 5892 5893 5893 5894 5896 5897 5899 5900 5900 5899 5897 5896 5895 5895 5895 5893 5891 5888 5885 5882 5877 5874 5871 5868 5864 5860 5856
5857 5860 5861 5862 5865 5866 5867 5868 5868 5872 5874 5875 5877 5879 5881 5882 5883 5883 5883 5885 5885 5888 5891 5892 5892 5891 5890 5890 5889 5887 5885 5884 5883 5881 5878 5873 5869 5867 5865 5861 5857 5853 5850
5846 5849 5852 5855 5857 5858 5860 5864 5863 5865 5866 5868 5869 5870 5870 5872 5872 5873 5873 5875 5878 5879 5881 5882 5882 5883 5882 5881 5879 5878 5875 5873 5870 5868 5866 5863 5861 5858 5855 5853 5848 5844 5842
5836 5839 5842 5845 5848 5850 5852 5853 5855 5856 5858 5860 5862 5863 5863 5863 5862 5863 5863 5867 5869 5871 5871 5872 5873 5872 5872 5872 5869 5867 5864 5863 5860 5857 5853 5850 5848 5848 5844 5842 5838 5834 5833
5824 5827 5831 5834 5837 5840 5843 5844 5846 5848 5850 5851 5853 5854 5854 5856 5856 5857 5860 5860 5861 5862 5862 5863 5864 5864 5863 5862 5860 5857 5854 5852 5848 5846 5840 5834 5830 5829 5830 5830 5827 5825 5823
5810 5815 5819 5822 5825 5828 5831 5832 5835 5839 5840 5841 5843 5845 5846 5846 5847 5849 5850 5852 5854 5854 5855 5856 5855 5855 5855 5853 5851 5848 5846 5843 5838 5833 5828 5823 5818 5817 5819 5818 5816 5814 5813
5792 5796 5802 5808 5811 5814 5819 5819 5821 5823 5827 5830 5831 5832 5835 5836 5837 5838 5839 5841 5843 5844 5846 5845 5845 5845 5845 5845 5842 5839 5837 5833 5830 5825 5818 5809 5808 5807 5805 5803 5801 5801 5802
5777 5782 5789 5793 5798 5801 5805 5806 5808 5810 5810 5813 5818 5820 5821 5823 5824 5826 5826 5828 5831 5833 5834 5834 5835 5834 5835 5834 5832 5830 5828 5824 5819 5813 5804 5797 5794 5794 5793 5793 5793 5790 5792
5763 5768 5773 5778 5783 5786 5789 5790 5791 5793 5796 5799 5800 5803 5806 5808 5809 5812 5814 5815 5816 5819 5821 5823 5822 5823 5823 5823 5821 5820 5818 5814 5808 5804 5798 5790 5787 5786 5786 5785 5783 5784 5782
5749 5752 5756 5760 5763 5767 5771 5772 5773 5776 5779 5782 5785 5787 5788 5791 5793 5796 5799 5800 5802 5804 5807 5807 5808 5809 5810 5811 5810 5809 5808 5805 5801 5797 5791 5786 5783 5781 5779 5775 5774 5772 5775
5734 5737 5740 5744 5747 5750 5754 5756 5758 5759 5761 5763 5765 5769 5772 5773 5776 5779 5782 5784 5787 5789 5791 5792 5793 5794 5797 5797 5798 5797 5796 5794 5792 5789 5784 5781 5777 5774 5771 5768 5768 5768 5769
5718 5721 5724 5727 5729 5733 5735 5739 5742 5744 5746 5747 5749 5752 5754 5757 5759 5762 5764 5767 5770 5773 5774 5776 5778 5779 5781 5783 5784 5784 5783 5782 5781 5778 5776 5773 5769 5767 5765 5763 5762 5762 5762
5699 5702 5706 5709 5712 5715 5718 5721 5725 5728 5731 5732 5733 5736 5738 5740 5742 5744 5747 5749 5752 5754 5756 5758 5760 5762 5764 5767 5769 5769 5769 5769 5769 5768 5765 5764 5760 5758 5757 5755 5755 5755 5754
5681 5684 5687 5690 5693 5696 5700 5703 5706 5709 5712 5715 5717 5720 5722 5723 5725 5727 5729 5731 5734 5737 5739 5740 5744 5746 5748 5750 5752 5755 5755 5755 5756 5755 5755 5753 5750 5748 5745 5745 5746 5746 5745
5660 5664 5667 5670 5674 5677 5680 5683 5686 5689 5692 5694 5698 5701 5704 5706 5707 5709 5710 5712 5715 5718 5721 5724 5726 5729 5731 5734 5736 5738 5740 5740 5741 5742 5743 5743 5741 5739 5737 5735 5736 5737 5737
5639 5643 5647 5650 5652 5655 5658 5662 5665 5668 5670 5672 5675 5679 5683 5686 5688 5690 5692 5693 5695 5699 5702 5705 5707 5710 5714 5717 5719 5721 5724 5725 5726 5727 5728 5729 5729 5729 5728 5727 5728 5728 5728
Wind_Speed
22 22 22 22 21 22 23 23 21 21 19 18 15 15 17 18 19 20 19 19 19 19 19 19 18 17 17 16 18 20 20 20 21 27 31 34 38 33 32 31 30 32 36
22 22 23 22 22 22 23 23 23 22 22 21 19 17 17 19 20 21 22 22 22 22 22 23 24 23 24 22 22 24 26 26 25 25 29 33 36 40 37 34 31 31 36
13 19 23 23 22 23 23 25 26 26 26 24 21 21 20 21 23 24 24 25 25 25 26 26 28 27 29 29 28 28 30 32 33 31 30 30 31 37 38 34 34 33 36
15 14 13 20 25 26 26 26 27 29 29 28 27 26 24 25 24 26 26 26 27 28 28 28 29 29 30 31 31 31 31 30 32 31 29 28 29 32 37 38 35 37 37
22 21 17 16 18 26 28 28 29 29 29 31 31 31 30 28 27 27 28 29 28 29 29 29 30 30 31 31 31 32 32 30 31 30 28 27 27 28 33 36 36 37 38
27 29 25 18 14 14 22 28 27 28 30 31 31 33 33 32 31 32 32 31 30 29 29 30 31 29 29 29 31 31 30 29 28 30 28 29 26 29 31 34 37 38 40
31 27 27 36 21 15 18 19 22 26 28 28 31 33 33 34 35 35 36 35 34 34 32 32 32 31 30 29 31 32 32 34 34 35 32 34 35 36 34 38 40 40 42
32 30 28 23 24 16 20 18 21 24 27 28 29 31 33 33 35 37 38 39 38 37 36 36 35 34 35 36 36 37 38 37 37 39 38 38 41 41 39 39 40 40 41
28 27 30 29 20 21 20 21 23 25 26 26 29 32 32 32 34 35 38 39 38 37 36 36 36 36 36 38 40 40 41 39 41 41 41 44 45 45 41 38 39 40 40
31 30 32 31 30 30 27 25 24 23 24 26 27 29 29 30 33 35 37 38 36 35 33 32 34 36 36 38 42 42 41 43 44 45 44 44 44 43 41 38 38 39 40
31 29 33 33 31 32 34 31 23 22 24 25 24 26 30 30 30 33 35 35 34 34 34 33 34 36 38 40 42 43 44 44 45 45 46 46 46 44 41 40 39 40 39
34 37 39 38 35 37 30 27 22 22 24 26 27 24 26 30 32 32 34 35 35 36 33 32 33 34 35 35 37 39 41 43 44 45 47 48 47 47 44 41 39 39 38
40 45 45 41 36 34 35 33 30 28 28 29 30 30 33 24 27 33 35 33 33 33 31 32 33 34 34 34 35 37 39 40 41 41 45 48 49 44 43 41 39 36 36
39 40 39 43 41 37 37 35 36 30 30 33 32 33 32 27 31 28 27 29 30 30 27 27 26 29 31 33 32 31 35 38 42 43 51 53 51 47 39 40 38 35 36
47 46 44 41 39 37 37 35 34 35 37 38 38 39 36 34 30 32 32 30 29 29 28 27 26 26 27 28 29 33 37 40 44 49 51 55 56 57 36 36 34 33 33
57 53 52 51 48 44 39 36 32 36 40 43 42 44 43 38 39 37 34 35 36 34 32 32 32 33 33 33 34 38 40 43 51 55 57 56 39 31 34 35 32 30 31
69 65 61 58 52 44 50 46 48 45 43 44 46 48 49 49 43 49 38 40 40 39 40 41 40 41 40 40 42 43 44 49 55 55 56 51 35 33 39 38 33 36 38
56 41 45 59 52 47 53 58 59 56 59 58 54 53 53 55 53 45 44 44 48 49 47 47 45 45 46 46 47 47 49 53 54 53 50 45 41 36 31 35 40 38 25
53 52 57 59 56 58 59 58 59 61 64 64 62 58 54 55 56 54 52 52 52 54 54 53 52 51 53 51 51 50 52 52 52 51 45 37 32 30 32 28 37 36 23
55 55 64 63 63 60 52 54 54 55 61 58 62 62 58 54 56 57 59 61 61 58 56 59 56 54 57 54 57 56 55 50 45 42 34 31 27 26 27 36 37 27 22
50 57 61 62 63 66 62 60 51 47 48 52 54 63 64 59 56 56 59 62 65 66 65 64 64 58 57 58 55 51 51 46 44 42 33 34 33 30 25 24 26 26 27
47 47 49 52 50 53 56 54 51 47 45 47 49 53 58 62 61 60 59 60 63 66 67 68 67 66 65 63 55 51 48 44 41 33 35 38 34 31 22 23 21 26 31
55 54 53 54 53 54 55 55 57 57 56 54 51 51 55 59 62 64 63 63 62 62 63 65 65 64 64 60 57 51 48 46 41 40 39 39 40 37 32 25 26 28 28
60 60 58 58 61 62 59 58 61 62 61 60 61 61 56 57 60 63 65 65 65 64 62 61 59 59 59 57 54 51 50 49 45 42 41 40 37 33 33 31 29 27 29
66 65 63 63 62 62 61 61 61 60 60 60 61 62 62 63 63 64 63 63 63 63 64 62 60 58 57 55 54 50 48 47 45 45 42 38 33 34 31 33 30 26 31
65 67 68 68 67 67 67 66 64 64 64 63 64 66 65 66 64 68 68 65 64 63 61 62 62 60 58 57 54 52 49 48 46 45 44 39 36 34 31 29 33 28 31
Wind_Direction
199 197 194 197 202 206 200 199 205 204 211 215 207 214 213 215 218 223 225 229 232 234 241 248 253 263 270 274 281 287 292 300 304 306 314 316 320 329 335 335 340 349 351
211 204 203 205 207 205 214 211 208 213 214 221 222 216 226 225 224 228 233 236 239 244 249 254 258 263 273 276 279 285 291 295 298 297 301 308 319 323 330 332 333 342 346
213 215 213 212 214 216 211 218 218 218 218 223 228 230 227 235 233 231 234 241 246 250 255 259 263 264 268 274 278 281 287 293 298 303 308 317 321 319 323 331 331 338 342
221 223 215 217 221 222 221 217 222 225 225 224 226 232 234 239 244 250 249 245 247 251 255 258 264 270 272 274 278 282 288 295 301 309 315 321 324 321 324 328 333 336 337
217 223 223 220 224 232 230 226 222 227 232 232 232 232 234 237 243 247 252 255 257 260 262 265 266 269 274 279 282 286 291 297 302 306 311 316 318 319 318 323 329 331 331
237 222 218 217 217 230 240 240 234 231 234 238 237 239 239 238 241 246 249 253 256 260 263 265 267 270 275 280 285 289 293 296 301 305 311 313 315 312 316 319 324 326 328
240 240 246 208 196 223 229 241 247 242 240 242 247 245 244 246 246 247 251 254 257 260 262 268 272 276 278 281 285 290 294 297 304 304 307 311 313 312 319 322 322 325 327
248 252 267 257 204 228 246 246 242 248 248 246 245 250 253 252 252 254 257 258 258 260 265 269 275 279 283 286 288 290 291 294 297 300 306 309 311 313 320 322 321 323 323
249 254 255 256 243 245 242 242 247 246 247 250 252 253 254 255 257 256 257 259 263 265 267 270 274 279 282 284 284 286 288 293 294 299 304 307 308 310 315 317 317 319 321
245 242 247 247 247 245 240 244 248 249 251 257 258 257 258 261 262 262 262 264 267 268 268 269 271 273 275 276 279 282 288 293 296 300 302 301 302 305 309 313 315 317 319
240 245 245 240 246 247 257 248 243 248 252 258 262 268 264 256 259 263 265 266 267 267 269 269 270 273 276 278 283 289 293 294 295 296 298 299 299 300 303 306 310 313 316
245 245 244 244 241 247 261 244 240 257 262 266 262 262 265 262 258 259 261 264 265 267 269 271 276 280 284 288 292 295 296 297 300 300 299 296 295 297 298 300 302 306 310
238 236 237 239 249 253 265 266 248 251 263 266 266 267 264 251 263 261 260 263 269 272 275 277 278 282 286 287 290 293 298 299 298 298 298 296 295 293 293 295 296 300 305
242 244 240 240 245 247 251 252 240 247 264 265 267 264 264 266 272 277 275 267 267 275 278 279 283 285 285 284 288 294 299 304 303 307 308 295 291 289 285 289 290 294 299
241 247 246 246 246 247 247 247 247 249 262 265 264 263 263 256 262 265 266 264 268 270 272 280 286 289 292 292 291 292 295 302 309 307 313 305 301 277 285 283 284 288 293
241 241 245 249 248 252 236 235 237 254 259 265 265 263 264 260 259 261 260 260 260 265 273 277 281 284 283 286 293 298 303 301 305 305 309 309 298 278 280 280 281 279 282
234 232 234 243 243 244 238 252 259 262 262 264 262 260 259 260 257 255 253 255 256 260 266 269 274 280 286 291 292 298 304 304 308 309 308 304 284 280 275 272 269 267 277
231 243 253 237 240 246 254 260 263 260 271 273 268 262 256 258 260 262 259 251 257 260 264 268 272 277 281 285 290 295 302 305 310 310 311 309 281 278 295 301 288 269 264
258 257 259 259 261 264 264 264 265 267 268 268 268 263 256 255 258 258 254 261 256 259 264 266 270 275 279 282 288 294 298 305 309 309 306 306 296 295 291 299 302 281 252
257 261 266 268 270 269 269 270 274 270 267 268 258 257 256 257 256 256 259 259 261 262 262 265 268 269 274 284 284 285 291 298 303 309 307 306 300 299 292 292 288 263 251
253 257 260 264 267 269 269 272 273 268 265 263 261 251 255 256 256 257 258 260 262 263 264 267 271 276 277 279 285 284 285 292 294 295 308 305 305 291 297 287 279 271 263
261 257 257 257 258 258 261 263 264 264 266 267 264 258 255 257 255 256 258 260 261 263 264 265 268 270 273 275 277 280 280 284 288 291 292 294 295 293 274 276 277 262 274
265 266 264 261 262 263 263 264 266 267 268 268 268 270 266 263 262 260 260 261 261 263 264 265 267 268 269 271 273 275 277 276 280 282 286 287 290 291 269 262 267 270 265
256 259 261 262 262 263 264 264 265 266 266 265 267 267 272 271 268 267 264 263 262 262 264 265 264 265 266 268 270 269 271 273 275 277 279 279 287 286 261 248 249 263 253
252 253 254 255 256 256 257 259 259 258 258 260 262 263 261 265 270 269 266 266 264 263 261 261 262 263 264 264 265 266 266 268 270 271 272 270 272 271 286 258 244 260 253
251 253 255 255 255 256 256 256 257 259 259 257 256 259 261 258 259 264 265 265 264 262 261 262 261 260 260 261 262 263 264 264 265 267 268 266 265 268 270 262 246 258 254